COSMOS 2559 (707K)

Last updated on Sun Apr 12 2026 00:03:25 GMT+0000 (Coordinated Universal Time)

1 54031U 22130A 26098.94722269 -.00000026 00000+0 00000+0 0 9994 2 54031 64.3113 317.0111 0010946 177.4081 182.6423 2.13101541 27211
UTC large
Height (km)
Speed (km/s)
/
Latitude / Longitude
Inclination (degrees)
Orbital Period (minutes)
Azimuth
Elevation
Range (km)
Doppler Factor

Next 0 passes for location: London (51.5072 / 0.1276)

Sorry there are no passes over London.
COSMOS 2559 (707K)